Date,TemperatureHighF,TemperatureAvgF,TemperatureLowF,DewpointHighF,DewpointAvgF,DewpointLowF,HumidityHigh,HumidityAvg,HumidityLow,PressureMaxIn,PressureMinIn,WindSpeedMaxMPH,WindSpeedAvgMPH,GustSpeedMaxMPH,PrecipitationSumIn
2013-1-1,49.2,46.7,41.6,47.8,40.5,27.5,97,82,45,30.12,29.97,13,2,13,0.37
2013-1-2,50.3,46.9,42.2,47.2,43.6,36.9,97,88,72,30.18,29.93,14,2,14,0.10
2013-1-3,44.6,38.6,26.1,37.8,34.3,24.9,95,85,73,30.30,30.12,9,2,9,0.00
2013-1-4,51.6,35.1,20.9,31.6,22.2,14.2,96,65,31,30.37,30.25,16,2,16,0.00
2013-1-5,48.9,35.1,20.3,33.8,23.6,18.3,93,66,34,30.42,30.24,10,2,11,0.00
2013-1-6,54.6,44.2,33.2,41.2,36.0,28.0,91,74,53,30.25,30.06,16,2,16,0.02
2013-1-7,52.0,35.9,24.5,31.6,26.9,22.8,95,73,38,30.45,30.22,13,2,13,0.00
2013-1-8,52.4,39.0,23.9,41.4,32.8,22.4,95,80,56,30.49,30.38,6,1,6,0.00
2013-1-9,65.4,50.6,35.8,53.3,45.3,34.2,95,83,62,30.48,30.39,16,1,16,0.00
2013-1-10,68.2,54.3,44.8,50.7,45.8,38.9,97,75,48,30.53,30.35,10,2,10,0.00
2013-1-11,54.9,48.0,45.9,48.5,46.7,43.3,97,95,65,30.35,30.15,13,2,13,0.18
2013-1-12,71.5,58.0,47.1,65.0,56.0,46.3,98,93,78,30.15,30.07,13,1,13,0.14
2013-1-13,71.5,61.0,52.4,62.3,57.9,51.6,98,90,70,30.12,30.03,28,3,28,0.00
2013-1-14,65.7,62.4,58.1,63.8,60.9,57.3,97,95,87,30.11,30.04,16,3,16,0.28
2013-1-15,63.3,48.4,40.8,61.7,47.4,40.0,97,96,93,30.17,30.03,14,5,14,0.29
2013-1-16,49.2,45.9,40.8,48.4,45.0,40.0,97,97,95,30.06,29.95,10,1,10,0.31
2013-1-17,50.5,45.0,32.1,49.8,44.1,31.3,98,96,93,30.18,29.78,32,6,32,2.40
2013-1-18,49.2,35.9,26.7,37.5,28.4,23.6,97,78,38,30.49,30.18,10,2,11,0.01
2013-1-19,56.2,34.4,21.6,32.4,25.5,20.4,97,75,26,30.47,30.14,20,2,20,0.00
2013-1-20,65.0,45.3,28.5,35.1,29.3,22.5,93,58,29,30.14,29.99,20,3,20,0.00
2013-1-21,61.3,41.3,25.1,34.8,25.9,14.4,95,61,27,30.06,29.89,24,4,24,0.00
2013-1-22,42.4,33.9,21.6,18.3,7.6,-5.2,71,34,15,30.23,29.99,21,4,21,0.00
2013-1-23,46.9,31.4,16.6,26.9,16.3,7.4,88,58,29,30.32,30.03,20,3,20,0.00
2013-1-24,47.9,33.5,22.6,29.4,15.4,3.1,93,54,20,30.46,29.96,23,5,23,0.00
2013-1-25,26.5,23.3,16.9,24.5,16.9,6.3,92,77,50,30.47,30.08,13,2,13,0.00
2013-1-26,48.1,36.8,25.5,35.7,30.9,24.2,95,80,50,30.39,30.08,9,2,9,0.01
2013-1-27,45.7,37.7,23.1,31.1,27.3,21.4,95,68,46,30.55,30.34,10,2,11,0.00
2013-1-28,51.6,42.2,34.2,46.2,37.7,31.2,95,84,66,30.46,30.23,21,3,21,0.03
2013-1-29,72.4,56.7,40.3,58.8,50.9,39.0,97,82,58,30.23,30.01,23,4,23,0.01
2013-1-30,73.0,65.4,50.1,62.3,59.6,46.3,94,82,61,30.01,29.41,46,16,46,1.05
2013-1-31,50.5,43.1,31.8,46.6,27.3,16.1,89,56,29,30.01,29.51,43,10,43,0.28
2013-2-1,40.2,32.6,21.5,27.4,7.3,-1.9,74,36,19,30.34,29.90,28,6,28,0.00
2013-2-2,43.8,32.9,19.1,34.2,18.2,8.4,87,59,26,30.36,30.00,30,6,30,0.00
2013-2-3,54.4,40.4,29.0,34.5,28.0,20.3,92,65,28,30.00,29.83,24,6,25,0.00
2013-2-4,52.0,39.0,25.4,26.8,22.4,18.5,80,54,30,30.12,29.97,16,4,16,0.00
2013-2-5,65.6,46.9,33.2,38.9,32.2,26.6,87,59,32,29.97,29.87,24,4,24,0.00
2013-2-6,64.9,44.7,28.1,36.7,28.2,23.7,96,60,22,30.20,29.97,14,2,14,0.00
2013-2-7,43.2,39.6,37.1,38.0,35.2,26.0,95,85,59,30.27,29.99,20,6,20,0.67
2013-2-8,59.7,45.7,37.0,48.1,37.2,28.5,96,75,43,30.09,29.85,20,5,20,0.01
2013-2-9,61.2,40.7,24.4,28.5,22.1,10.5,94,56,14,30.31,30.07,10,2,11,0.00
2013-2-10,58.0,40.8,27.8,41.5,27.9,18.8,94,67,22,30.42,30.15,21,2,21,0.14
2013-2-11,57.2,50.1,42.8,55.2,48.7,41.2,97,95,92,30.16,29.95,19,3,19,0.16
2013-2-12,61.1,49.3,38.3,48.9,37.0,24.6,97,68,26,30.09,29.88,13,2,13,0.02
2013-2-13,47.5,43.9,35.6,45.0,41.3,32.3,96,91,72,29.93,29.64,20,2,20,0.05
2013-2-14,52.4,38.1,26.0,34.6,30.0,24.8,96,76,42,30.05,29.85,20,3,20,0.00
2013-2-15,62.4,45.2,25.3,39.0,30.6,24.1,97,63,28,30.08,29.91,23,4,23,0.00
2013-2-16,45.7,35.4,24.4,32.6,28.7,21.1,94,77,57,29.98,29.81,13,2,13,0.00
2013-2-17,42.2,29.9,18.8,21.8,12.8,5.5,90,53,22,30.24,29.98,30,4,30,0.04
2013-2-18,55.4,35.6,17.4,26.5,20.5,13.0,91,59,29,30.36,30.18,20,3,20,0.00
2013-2-19,50.8,40.2,34.9,43.7,33.1,16.6,95,77,43,30.18,29.86,26,4,26,0.20
2013-2-20,54.4,40.2,26.3,22.9,15.1,6.2,76,39,15,30.10,30.00,16,4,16,0.00
2013-2-21,59.7,40.5,21.4,38.5,20.0,12.9,93,51,18,30.25,30.07,14,2,14,0.05
2013-2-22,40.3,37.5,36.1,38.4,35.9,35.0,96,94,89,30.30,30.08,9,3,9,0.41
2013-2-23,42.9,39.0,35.3,41.9,37.9,34.3,97,96,93,30.12,29.83,9,2,9,0.45
2013-2-24,65.5,50.0,37.7,44.2,34.6,20.0,97,64,18,30.01,29.82,24,4,24,0.00
2013-2-25,42.4,38.8,32.5,28.6,26.2,23.9,83,61,53,30.17,30.00,23,5,23,0.00
2013-2-26,38.9,35.8,31.9,37.9,33.6,24.0,97,92,57,30.06,29.59,21,5,21,1.46
2013-2-27,58.1,45.8,33.0,40.2,36.9,32.0,97,74,43,29.79,29.63,21,5,21,0.00
2013-2-28,50.9,39.2,28.2,34.6,27.8,24.0,95,67,37,29.88,29.70,16,3,16,0.00
2013-3-1,46.9,37.8,23.9,30.8,26.9,21.8,94,67,46,29.91,29.85,16,2,16,0.00
2013-3-2,46.3,36.1,25.2,37.1,30.6,22.7,92,81,59,29.91,29.80,20,2,20,0.10
2013-3-3,46.8,32.4,18.6,24.0,18.5,14.4,94,60,31,29.98,29.86,16,4,16,0.00
2013-3-4,57.0,35.9,17.7,27.0,17.1,9.6,90,53,15,30.12,29.97,17,3,17,0.00
2013-3-5,49.4,42.0,33.9,43.8,36.0,24.6,95,80,60,30.06,29.60,14,2,14,0.58
2013-3-6,48.4,39.0,29.2,40.6,25.4,20.7,95,59,39,30.10,29.60,33,9,33,0.29
2013-3-7,56.4,37.7,22.7,29.8,24.9,20.7,94,64,32,30.26,30.09,16,4,16,0.00
2013-3-8,57.5,38.7,21.4,26.6,22.8,19.2,93,59,23,30.32,30.19,23,3,23,0.00
2013-3-9,65.7,42.9,23.7,32.5,27.1,21.6,93,60,23,30.34,30.21,16,2,16,0.00
2013-3-10,68.4,51.0,33.1,39.0,34.2,30.2,90,58,25,30.28,30.14,16,3,16,0.00
2013-3-11,69.0,54.0,38.7,54.1,43.0,28.4,92,68,46,30.18,29.84,32,6,32,0.05
2013-3-12,69.4,58.2,43.2,58.9,47.5,29.5,96,72,27,29.98,29.73,26,7,26,0.38
2013-3-13,56.4,39.8,28.6,34.9,25.3,16.4,94,61,25,30.15,29.97,28,6,28,0.00
2013-3-14,53.7,39.5,25.9,23.8,16.0,10.3,69,41,19,30.27,30.14,21,4,21,0.00
2013-3-15,68.4,46.3,25.3,39.4,28.4,19.3,86,54,29,30.18,29.89,28,5,28,0.00
2013-3-16,79.0,65.5,50.8,46.5,43.1,39.1,66,46,30,29.89,29.70,43,10,43,0.00
2013-3-17,75.1,57.1,44.4,53.2,44.3,38.8,83,64,36,30.09,29.84,23,6,23,0.00
2013-3-18,44.4,40.2,38.9,40.0,38.2,36.9,96,93,81,30.13,29.84,16,5,16,0.43
2013-3-19,66.3,51.2,38.1,44.1,28.7,7.2,97,53,16,30.05,29.81,23,6,23,0.00
2013-3-20,58.5,48.8,41.7,27.5,13.5,6.7,44,25,13,30.10,29.78,26,5,26,0.00
2013-3-21,46.8,37.4,28.5,28.8,10.7,3.1,62,34,19,29.96,29.78,28,7,28,0.00
2013-3-22,54.5,36.5,19.4,26.4,16.7,11.8,84,49,20,30.07,29.93,23,4,23,0.00
2013-3-23,58.3,43.8,34.6,41.2,34.9,23.2,91,72,47,30.04,29.88,13,2,13,0.01
2013-3-24,42.5,40.2,37.4,41.2,38.3,36.1,95,93,89,29.91,29.53,23,4,23,0.83
2013-3-25,49.1,40.9,33.8,36.6,27.6,18.1,96,64,31,29.87,29.54,40,8,40,0.04
2013-3-26,46.3,34.6,24.6,26.0,23.6,21.4,90,65,41,30.16,29.86,16,3,16,0.00
2013-3-27,53.4,38.2,23.2,27.6,21.9,19.1,91,56,29,30.24,30.16,20,4,20,0.00
2013-3-28,58.4,39.2,22.5,28.6,21.7,18.3,90,55,22,30.29,30.17,23,3,23,0.00
2013-3-29,63.7,44.8,24.1,39.5,25.9,20.8,91,54,20,30.33,30.16,17,4,17,0.00
2013-3-30,65.8,52.6,43.9,45.9,41.7,36.1,96,70,37,30.21,30.03,16,3,16,0.28
2013-3-31,70.3,56.7,49.0,57.6,50.9,42.2,96,82,53,30.03,29.78,30,4,30,0.39
2013-4-1,73.8,60.0,47.7,53.4,42.9,32.2,97,60,23,29.95,29.82,24,5,25,0.02
2013-4-2,65.9,51.6,35.3,36.7,28.2,13.0,88,46,13,30.15,29.95,20,4,20,0.00
2013-4-3,62.6,51.2,41.3,31.1,21.1,14.4,52,31,19,30.27,30.11,20,5,20,0.00
2013-4-4,47.0,40.5,34.8,36.6,29.5,16.0,96,69,29,30.27,29.97,20,6,20,0.94
2013-4-5,68.2,50.5,35.7,46.4,38.8,29.7,97,70,26,30.03,29.89,20,3,20,0.01
2013-4-6,71.1,52.5,32.5,41.9,33.9,27.9,95,57,21,30.22,30.03,18,3,18,0.00
2013-4-7,72.4,57.1,39.6,49.4,43.2,36.8,92,63,35,30.24,30.08,23,5,23,0.00
2013-4-8,79.4,63.5,47.1,57.5,50.3,44.9,95,66,35,30.16,30.03,30,5,30,0.00
2013-4-9,85.0,70.5,52.6,58.6,54.1,49.8,93,59,35,30.19,30.06,23,5,23,0.00
2013-4-10,87.2,72.9,58.4,60.5,56.7,53.2,88,60,33,30.10,29.93,23,5,23,0.00
2013-4-11,82.8,70.8,61.3,66.6,60.4,55.8,94,71,45,29.97,29.72,28,6,28,0.24
2013-4-12,82.9,70.2,59.6,66.4,54.4,35.4,96,64,24,29.81,29.62,31,10,31,1.49
2013-4-13,78.8,59.8,39.9,47.0,37.8,29.8,94,51,18,30.01,29.81,18,2,18,0.00
2013-4-14,78.0,60.1,40.2,54.2,42.7,37.6,92,58,26,30.09,29.97,21,3,21,0.00
2013-4-15,68.6,60.1,55.6,60.3,56.2,51.4,95,87,71,30.19,29.97,7,2,7,0.06
2013-4-16,81.3,66.1,55.3,62.1,57.2,53.6,95,76,43,30.29,30.16,16,2,16,0.00
2013-4-17,81.8,67.7,55.0,64.3,58.5,53.3,96,75,42,30.24,30.09,14,2,14,0.00
2013-4-18,80.4,64.5,59.0,62.7,59.6,56.0,95,85,46,30.15,29.96,26,2,26,0.00
2013-4-19,77.0,66.8,54.6,66.6,61.7,52.0,93,84,64,29.97,29.71,33,10,33,0.52
2013-4-20,67.1,52.7,39.3,51.6,35.2,26.7,90,56,24,30.27,29.89,13,3,13,0.00
2013-4-21,62.8,47.6,35.3,43.4,37.4,31.0,94,71,40,30.44,30.26,17,2,17,0.00
2013-4-22,64.2,50.8,39.5,41.6,34.5,25.9,91,58,25,30.43,30.21,18,4,18,0.00
2013-4-23,72.5,55.3,39.8,51.3,44.3,36.1,89,69,40,30.26,30.09,14,2,14,0.00
2013-4-24,73.7,61.0,45.8,58.2,52.8,44.2,96,77,52,30.12,29.98,24,6,24,0.00
2013-4-25,74.2,60.1,47.4,57.6,41.9,26.5,90,56,18,30.27,30.02,16,3,16,0.00
2013-4-26,74.5,57.8,39.0,47.7,37.7,28.6,90,53,21,30.43,30.27,16,2,16,0.00
2013-4-27,64.4,56.7,53.9,57.3,51.6,45.6,96,83,66,30.34,30.23,9,1,9,0.31
2013-4-28,55.7,54.4,53.5,54.9,53.4,52.4,97,97,96,30.24,30.03,7,1,7,3.10
2013-4-29,74.5,61.1,55.2,63.0,57.3,54.4,97,88,55,30.05,29.93,10,1,10,0.21
2013-4-30,72.4,61.6,53.0,62.5,57.7,51.9,97,88,64,30.16,29.97,13,2,13,0.00
2013-5-1,65.2,58.6,50.4,57.6,55.0,49.0,97,88,73,30.28,30.16,14,2,14,0.00
2013-5-2,62.2,58.0,55.6,58.0,55.6,54.2,96,92,83,30.30,30.22,13,3,13,0.25
2013-5-3,66.0,57.5,54.6,55.5,53.0,47.0,95,85,64,30.23,30.10,18,2,18,0.00
2013-5-4,62.0,54.7,49.5,52.1,47.4,43.2,93,77,64,30.12,29.98,20,6,20,0.00
2013-5-5,58.0,52.3,49.4,56.9,50.6,47.2,96,94,86,30.03,29.82,21,6,21,0.95
2013-5-6,72.1,60.3,52.8,61.8,54.0,44.9,97,82,39,29.89,29.81,23,4,23,2.05
2013-5-7,73.6,56.5,44.8,53.5,48.4,43.0,97,78,36,29.94,29.84,17,2,17,0.06
2013-5-8,75.3,61.7,49.2,59.1,54.0,48.1,97,79,48,30.00,29.91,20,2,20,0.01
2013-5-9,82.7,64.5,47.7,60.5,54.3,46.3,97,74,36,30.08,29.99,13,2,13,0.00
2013-5-10,83.6,68.3,51.8,64.7,57.9,50.4,96,73,43,30.06,29.93,21,3,21,0.00
2013-5-11,80.2,68.9,60.5,64.5,61.1,58.5,95,78,51,29.96,29.79,20,4,20,0.22
2013-5-12,73.8,62.5,49.3,60.8,48.2,31.9,97,65,26,30.04,29.83,13,2,13,0.00
2013-5-13,70.2,54.6,37.6,43.5,35.3,22.5,95,55,17,30.18,30.04,17,3,17,0.00
2013-5-14,74.8,57.4,37.7,48.1,40.4,34.5,93,58,26,30.26,30.06,18,3,18,0.00
2013-5-15,90.9,65.7,51.0,63.2,55.1,47.2,93,71,35,30.07,29.93,18,2,18,0.00
2013-5-16,85.2,74.1,55.3,64.9,60.1,53.3,95,64,36,30.02,29.94,14,2,14,0.00
2013-5-17,87.7,76.3,57.8,67.6,61.8,55.3,96,64,37,30.08,30.00,7,1,13,0.00
2013-5-18,69.8,65.7,60.3,67.7,63.6,58.6,96,93,88,30.15,30.05,3,0,6,0.30
2013-5-19,79.0,70.0,65.0,70.0,66.2,63.6,96,89,69,30.11,30.01,12,1,18,0.18
2013-5-20,82.8,70.9,65.6,70.7,67.0,64.1,97,89,61,30.12,30.00,7,0,9,0.17
2013-5-21,87.0,70.6,62.4,73.6,66.2,61.1,97,87,54,30.04,29.93,8,1,16,0.00
2013-5-22,87.1,72.6,62.5,71.0,65.2,61.3,97,80,50,30.00,29.87,9,1,16,0.00
2013-5-23,81.2,69.1,63.5,70.0,64.8,59.3,97,87,63,29.99,29.81,5,1,10,0.29
2013-5-24,72.7,63.7,49.6,61.6,48.7,32.5,96,63,24,30.20,29.87,10,2,20,0.00
2013-5-25,79.1,59.9,40.5,54.2,43.9,35.1,95,62,25,30.31,30.14,14,1,17,0.00
2013-5-26,77.7,63.0,54.1,58.4,49.9,42.2,91,65,34,30.28,30.16,14,1,14,0.00
2013-5-27,84.6,67.4,49.0,62.1,55.0,47.6,96,69,37,30.26,30.13,14,2,16,0.00
2013-5-28,85.8,71.8,59.3,66.7,61.7,57.8,96,73,45,30.23,30.14,17,2,20,0.00
2013-5-29,86.6,72.5,58.1,65.2,61.3,56.2,96,71,40,30.24,30.14,18,2,18,0.00
2013-5-30,86.9,71.3,57.6,66.6,61.5,56.0,96,74,38,30.27,30.15,14,2,14,0.00
2013-5-31,88.1,73.3,61.0,68.3,63.7,59.3,96,75,42,30.22,30.09,17,2,17,0.00
2013-6-1,86.3,75.4,66.3,68.4,65.6,62.1,95,74,45,30.12,30.01,19,3,21,0.00
2013-6-2,79.9,72.8,67.3,71.5,67.0,64.2,96,82,69,30.04,29.90,14,2,16,0.21
2013-6-3,84.2,70.8,65.5,72.9,67.4,64.3,97,90,60,29.95,29.84,16,1,16,1.18
2013-6-4,81.6,70.8,65.0,70.2,66.3,63.8,97,87,56,30.07,29.94,14,2,14,0.10
2013-6-5,76.4,70.0,64.5,70.4,66.8,63.2,96,90,78,30.10,29.98,10,1,10,0.14
2013-6-6,77.5,71.3,67.5,73.3,69.4,66.3,97,94,82,29.99,29.80,13,1,13,1.50
2013-6-7,84.3,71.1,66.6,72.9,67.7,65.4,97,90,64,29.83,29.64,16,1,16,1.55
2013-6-8,85.9,73.4,66.3,72.0,67.2,64.0,97,83,49,30.09,29.82,14,1,14,0.01
2013-6-9,88.0,72.5,63.7,73.9,67.9,62.5,97,87,56,30.14,30.04,13,1,13,0.13
2013-6-10,82.5,73.0,66.9,73.2,68.9,65.2,97,88,64,30.08,29.90,21,4,24,0.19
2013-6-11,88.7,75.8,66.3,71.3,66.6,61.3,96,76,43,29.99,29.92,16,2,21,0.01
2013-6-12,94.2,77.0,61.4,77.3,69.1,60.2,96,79,49,30.01,29.88,15,2,16,0.00
2013-6-13,94.7,77.0,66.3,74.5,70.1,64.8,97,82,44,29.89,29.65,24,2,24,0.43
2013-6-14,82.9,71.4,58.7,64.8,58.0,51.7,96,66,36,30.03,29.77,14,3,14,0.00
2013-6-15,86.5,70.4,54.7,66.6,60.0,53.3,96,73,41,30.14,30.03,18,2,18,0.00
2013-6-16,87.7,73.9,61.5,70.5,65.0,59.6,94,76,45,30.14,30.01,19,3,22,0.00
2013-6-17,88.2,73.6,68.5,73.7,68.6,65.7,96,85,56,30.03,29.94,17,2,17,0.27
2013-6-18,82.0,72.1,67.5,73.6,69.4,66.3,96,92,71,29.97,29.78,21,2,26,1.67
2013-6-19,81.6,72.3,64.5,70.0,66.4,59.8,97,83,50,30.12,29.90,12,1,16,0.00
2013-6-20,82.9,74.4,64.7,70.0,66.6,63.4,96,78,56,30.23,30.10,14,2,16,0.00
2013-6-21,83.6,71.0,60.3,67.8,63.4,58.8,96,79,50,30.27,30.17,16,2,16,0.00
2013-6-22,85.7,71.6,57.6,70.0,64.1,56.2,96,79,52,30.23,30.11,19,2,19,0.00
2013-6-23,88.5,74.5,63.9,73.0,67.9,62.4,96,82,48,30.20,30.11,18,1,18,0.00
2013-6-24,90.0,74.6,66.8,75.7,69.1,65.2,96,84,53,30.21,30.09,18,2,20,0.08
2013-6-25,91.9,76.6,69.0,75.5,70.4,67.2,96,83,49,30.15,30.00,16,2,16,0.01
2013-6-26,91.3,74.6,66.0,75.6,69.6,64.5,96,86,52,30.04,29.90,16,1,16,0.06
2013-6-27,90.7,77.9,70.2,76.5,72.2,68.8,97,84,56,29.94,29.73,21,2,21,0.12
2013-6-28,93.6,77.7,66.4,76.7,70.6,65.2,97,81,47,29.78,29.58,18,2,18,1.27
2013-6-29,87.9,74.1,68.0,74.3,69.8,66.0,97,88,53,29.69,29.63,18,2,22,0.01
2013-7-1,78.5,75.3,73.9,71.7,70.7,70.1,89,86,78,29.97,29.89,15,2,15,0.03
2013-7-2,79.2,73.2,71.4,74.2,70.7,69.7,95,92,79,30.15,29.96,22,3,22,0.42
2013-7-3,78.5,73.9,71.2,74.7,71.9,69.9,96,94,84,30.21,30.12,12,1,12,0.49
2013-7-4,85.6,74.5,68.8,77.0,71.1,67.6,97,90,67,30.25,30.14,22,2,24,1.13
2013-7-5,85.5,73.8,69.6,77.3,71.9,67.6,97,94,70,30.25,30.19,15,1,16,2.82
2013-7-6,87.6,75.1,70.7,76.1,71.8,69.8,97,90,61,30.24,30.10,19,2,22,0.17
2013-7-7,86.9,77.2,71.6,76.3,72.8,70.3,96,87,65,30.18,30.06,19,2,19,0.00
2013-7-8,88.1,76.9,70.8,75.1,72.1,69.6,97,86,58,30.19,30.10,16,1,16,0.04
2013-7-9,91.5,77.9,69.2,77.2,72.0,68.0,97,84,51,30.16,30.04,15,1,15,1.50
2013-7-10,87.9,76.5,69.0,77.2,72.0,68.1,97,87,62,30.13,29.94,17,2,17,0.26
2013-7-11,77.2,72.8,69.9,75.1,71.5,68.5,97,95,92,29.97,29.88,11,0,12,0.15
2013-7-12,81.2,73.6,69.7,73.7,70.1,67.0,97,90,71,30.01,29.88,14,1,22,0.00
2013-7-13,79.5,72.7,68.6,73.0,69.4,66.2,96,89,77,30.11,30.01,14,1,16,0.07
2013-7-14,86.0,75.4,69.5,76.6,71.9,68.3,97,89,66,30.28,30.09,14,2,22,0.40
2013-7-15,87.7,75.5,67.1,75.0,70.4,65.9,97,86,58,30.33,30.24,11,1,11,0.01
2013-7-16,94.0,78.6,66.7,76.3,70.9,65.5,97,80,45,30.31,30.21,11,0,11,0.00
2013-7-17,91.6,76.0,69.3,80.4,71.9,66.4,96,88,60,30.25,30.12,21,1,32,0.20
2013-7-18,92.2,76.9,67.3,78.7,72.3,66.4,97,87,56,30.18,30.06,12,1,16,0.01
2013-7-19,92.3,83.0,68.8,77.4,74.5,67.6,97,77,54,30.11,29.99,15,2,20,0.00
2013-7-20,85.8,76.1,70.5,77.3,72.5,69.0,96,89,71,30.04,29.93,13,1,16,0.00
2013-7-21,91.0,75.1,68.4,77.2,71.4,67.2,97,89,57,30.01,29.92,17,1,17,0.01
2013-7-22,89.4,76.5,69.2,76.3,71.8,68.0,97,86,62,30.00,29.83,13,1,18,0.01
2013-7-23,90.9,77.4,70.1,74.3,71.0,66.4,96,82,49,29.86,29.76,14,1,16,0.00
2013-7-24,93.1,78.9,67.9,78.6,71.1,66.7,97,79,48,29.86,29.74,10,1,10,0.02
2013-7-25,84.6,76.5,68.0,72.3,69.3,65.0,95,79,61,30.02,29.85,11,2,12,0.03
2013-7-26,86.5,74.8,66.6,72.5,68.6,65.4,96,83,56,30.10,30.01,18,1,18,0.00
2013-7-27,77.5,70.7,67.4,72.1,69.1,66.2,97,95,80,30.03,29.91,15,1,20,3.85
2013-7-28,86.6,73.3,68.8,74.9,69.6,67.6,97,89,59,30.00,29.92,22,1,24,0.19
2013-7-29,87.7,73.2,64.6,71.7,66.7,63.1,97,83,47,30.17,30.00,11,1,11,0.01
2013-7-30,85.6,73.1,64.0,72.3,66.7,61.5,96,82,52,30.23,30.14,10,1,10,0.00
2013-7-31,79.7,72.6,69.5,74.8,70.4,68.3,97,93,79,30.16,29.99,13,0,13,0.42
2013-8-1,85.4,74.4,69.4,76.2,71.4,66.9,97,91,62,29.99,29.88,11,1,12,0.86
2013-8-2,87.5,75.6,65.8,74.6,69.4,64.8,97,83,52,30.03,29.92,9,1,10,0.00
2013-8-3,89.4,77.2,67.7,76.3,71.1,66.5,97,83,54,30.03,29.94,14,1,14,0.00
2013-8-4,86.2,75.2,66.3,73.9,69.1,65.1,96,83,53,30.03,29.93,12,1,14,0.00
2013-8-5,84.4,73.6,66.4,71.9,67.7,62.9,95,83,59,30.08,29.98,20,1,24,0.00
2013-8-6,74.3,70.8,66.4,71.1,68.7,65.0,97,93,81,30.06,29.98,16,1,20,1.25
2013-8-7,83.4,74.8,69.5,74.4,71.0,68.3,96,89,65,30.09,30.01,20,1,20,0.00
2013-8-8,88.7,77.7,70.8,76.9,72.7,69.6,97,86,62,30.06,29.99,15,2,20,0.00
2013-8-9,92.2,78.3,70.2,78.7,73.1,69.0,97,85,60,30.08,30.00,16,2,16,0.00
2013-8-10,92.9,76.7,71.2,78.7,72.8,70.0,97,89,57,30.12,30.04,17,1,18,0.06
2013-8-11,92.0,78.2,69.4,77.9,72.8,68.5,97,85,53,30.13,30.03,10,1,10,0.03
2013-8-12,92.5,77.5,69.6,77.4,72.1,68.4,97,85,53,30.07,29.95,13,1,14,0.00
2013-8-13,90.0,79.0,68.9,76.8,72.6,67.7,97,82,58,29.92,29.81,15,2,22,0.22
2013-8-14,79.0,70.5,63.2,69.4,65.6,60.9,96,85,56,30.07,29.87,12,1,12,0.00
2013-8-15,73.9,65.1,58.4,63.0,59.9,57.0,96,84,60,30.16,30.06,18,1,18,0.00
2013-8-16,71.3,63.5,58.8,64.2,60.3,57.1,96,90,70,30.17,30.09,13,1,13,0.02
2013-8-17,65.4,62.9,60.3,63.6,61.4,58.9,97,95,91,30.19,30.13,13,1,13,0.35
2013-8-18,81.5,70.0,63.6,72.2,67.1,62.7,97,91,68,30.22,30.12,11,0,11,0.17
2013-8-19,79.6,70.9,66.9,71.6,68.8,65.7,97,93,73,30.19,30.08,8,0,8,0.62
2013-8-20,79.2,71.4,64.2,73.2,68.4,63.3,98,91,75,30.19,30.11,7,0,7,0.00
2013-8-21,78.4,72.5,69.0,75.2,70.7,68.0,97,94,85,30.23,30.11,10,0,10,0.06
2013-8-22,70.8,69.3,68.4,69.9,68.4,67.5,97,97,97,30.15,30.12,4,0,6,0.00
2013-8-23,89.5,71.4,65.4,72.9,68.4,64.5,97,91,54,30.08,29.98,7,0,12,0.00
2013-8-24,81.0,70.4,61.4,68.1,62.7,59.4,96,79,50,30.29,30.08,14,2,16,0.00
2013-8-25,80.5,67.0,55.9,66.2,60.6,54.8,97,82,50,30.39,30.28,17,1,17,0.00
2013-8-26,85.0,68.4,54.3,69.2,61.5,53.2,97,81,47,30.33,30.12,16,1,16,0.00
2013-8-27,89.8,73.2,61.1,75.4,67.4,59.8,97,84,51,30.15,29.99,11,0,11,0.00
2013-8-28,90.5,76.5,65.3,76.1,70.7,64.1,97,84,57,30.03,29.92,10,0,14,0.00
2013-8-29,91.5,79.1,70.6,77.3,72.6,69.1,96,82,54,30.00,29.90,8,1,8,0.03
2013-8-30,87.7,76.1,69.5,74.0,70.6,67.3,97,85,53,30.07,29.94,13,1,13,0.13
2013-8-31,89.6,73.7,65.9,76.9,69.6,64.7,97,88,60,29.97,29.87,14,1,14,0.01
2013-9-1,90.9,75.1,64.7,77.8,69.8,63.5,97,85,59,29.92,29.79,20,3,22,0.00
2013-9-2,90.0,80.6,66.1,76.4,73.5,65.2,97,80,57,29.92,29.81,14,1,14,0.00
2013-9-3,89.4,76.7,68.5,73.0,69.7,66.7,97,81,49,29.98,29.82,13,1,13,0.00
2013-9-4,87.7,72.7,61.2,71.3,65.4,60.1,97,80,49,30.10,29.97,12,1,12,0.00
2013-9-5,86.8,72.3,62.7,71.9,65.5,61.5,97,82,47,30.12,30.05,12,0,12,0.00
2013-9-6,83.2,70.8,61.6,67.8,63.2,60.2,96,79,50,30.20,30.07,13,1,14,0.00
2013-9-7,84.7,70.1,59.0,70.0,64.0,57.9,96,83,53,30.14,29.98,14,1,18,0.00
2013-9-8,88.0,72.2,60.0,72.2,65.5,58.9,97,82,47,30.00,29.93,10,0,10,0.00
2013-9-9,90.0,74.1,63.5,73.5,67.1,62.3,97,81,47,30.15,30.00,16,1,16,0.00
2013-9-10,92.0,75.0,63.5,74.0,67.9,62.3,97,81,44,30.25,30.14,13,1,13,0.00
2013-9-11,91.5,75.7,64.2,73.4,68.5,63.0,96,81,45,30.22,30.08,14,1,14,0.00
2013-9-12,91.0,74.7,65.0,73.5,68.7,63.8,96,83,50,30.08,29.85,15,1,15,0.00
2013-9-13,86.2,72.9,64.8,67.6,61.6,51.9,96,71,39,29.92,29.80,12,2,12,0.00
2013-9-14,77.7,63.3,54.0,60.7,54.2,50.0,94,74,49,30.11,29.92,17,2,18,0.00
2013-9-15,80.9,65.0,52.0,67.8,59.8,50.6,96,85,57,30.22,30.11,14,1,14,0.00
2013-9-16,86.9,71.7,61.2,68.9,63.5,60.1,96,78,46,30.17,30.06,11,1,11,0.00
2013-9-17,73.7,67.1,61.4,62.5,58.3,55.3,86,74,55,30.31,30.17,13,1,18,0.00
2013-9-18,76.3,64.2,57.9,61.5,56.8,53.4,92,78,52,30.31,30.17,13,1,13,0.00
2013-9-19,81.1,68.0,60.1,68.2,61.6,58.0,95,81,56,30.19,30.08,11,1,11,0.00
2013-9-20,87.4,71.4,58.9,70.7,64.9,57.8,96,82,49,30.08,29.91,11,1,11,0.00
2013-9-21,72.3,67.8,62.5,70.4,66.0,61.3,97,94,87,29.93,29.70,11,2,16,1.83
2013-9-22,78.0,65.1,56.1,63.8,59.1,54.3,98,83,49,29.91,29.70,17,1,17,0.06
2013-9-23,77.0,63.1,54.1,63.2,56.6,52.5,95,81,53,30.06,29.91,13,1,13,0.00
2013-9-24,80.8,65.7,57.2,65.2,59.7,55.7,96,83,48,30.08,29.94,13,1,13,0.00
2013-9-25,69.7,63.1,58.8,63.7,60.6,57.4,97,92,73,29.94,29.86,8,0,8,0.18
2013-9-26,76.2,60.1,53.6,61.9,57.3,52.1,97,91,46,30.04,29.88,10,0,22,0.00
2013-9-27,75.7,61.5,50.8,60.4,55.1,49.6,97,82,52,30.18,30.04,17,2,17,0.00
2013-9-28,72.0,59.3,49.4,58.3,53.5,48.3,97,83,55,30.26,30.16,18,1,22,0.00
2013-9-29,72.8,60.5,51.2,61.0,55.4,49.7,96,85,57,30.18,30.03,16,1,16,0.00
2013-9-30,79.4,63.3,49.7,61.9,55.7,48.6,97,79,43,30.10,30.00,15,1,15,0.00
2013-10-1,74.8,57.3,51.3,63.3,55.0,50.2,97,92,65,30.15,30.07,12,0,12,0.00
2013-10-2,83.5,70.4,52.7,66.8,61.6,51.6,97,76,46,30.16,30.07,13,1,14,0.00
2013-10-3,85.0,67.7,56.9,66.8,60.3,55.8,97,80,42,30.14,30.07,13,1,16,0.00
2013-10-4,87.3,61.2,55.9,69.0,59.1,54.8,97,93,48,30.16,30.08,6,0,12,0.00
2013-10-5,87.9,69.7,57.2,70.2,63.1,56.1,97,82,47,30.14,30.03,13,1,13,0.00
2013-10-6,85.0,69.3,58.3,68.2,63.0,57.2,97,83,52,30.05,29.89,20,2,20,0.00
2013-10-7,76.0,68.7,58.8,70.8,64.9,55.3,97,88,69,30.01,29.80,16,1,16,2.15
2013-10-8,70.5,60.4,55.2,56.2,50.2,45.3,88,70,50,30.20,30.00,19,3,20,0.00
2013-10-9,72.2,57.8,46.8,54.8,48.6,44.5,93,74,43,30.23,30.11,16,2,22,0.00
2013-10-10,75.4,60.1,44.7,63.2,54.1,43.3,96,82,61,30.13,29.98,11,1,11,0.00
2013-10-11,78.9,65.3,55.7,66.4,58.9,53.7,94,82,49,30.01,29.91,12,0,12,0.00
2013-10-12,72.8,64.7,54.8,64.0,60.3,53.7,96,86,67,30.08,29.96,11,0,11,0.00
2013-10-13,72.0,65.6,61.6,64.0,61.8,59.9,95,88,74,30.21,30.08,13,1,14,0.01
2013-10-14,71.1,63.6,58.8,63.3,60.0,57.2,95,88,74,30.24,30.15,14,2,20,0.02
2013-10-15,75.0,62.8,55.6,59.8,56.0,51.8,95,80,46,30.20,30.05,16,1,16,0.00
2013-10-16,72.7,60.8,50.2,61.8,56.5,49.1,97,87,62,30.08,29.96,11,1,11,0.00
2013-10-17,70.7,63.4,57.8,64.3,61.1,56.7,96,92,76,29.97,29.85,14,1,20,0.09
2013-10-18,70.8,60.2,52.2,63.6,55.5,51.3,97,86,56,30.03,29.89,15,1,15,0.00
2013-10-19,63.3,57.5,49.2,61.4,55.8,48.1,97,94,86,29.97,29.84,9,0,10,0.01
2013-10-20,67.2,50.6,40.2,49.3,43.6,39.3,97,80,38,30.10,29.91,16,1,16,0.00
2013-10-21,69.6,51.7,37.4,55.5,46.2,36.4,97,84,53,30.15,29.99,13,1,14,0.00
2013-10-22,66.6,58.1,51.8,59.9,54.4,50.1,96,88,65,30.01,29.78,10,0,12,0.00
2013-10-23,66.8,54.6,38.3,54.4,43.0,31.3,97,70,31,30.03,29.73,27,4,30,0.00
2013-10-24,59.9,44.1,29.5,44.7,35.9,28.1,96,76,42,30.17,30.03,17,1,18,0.00
2013-10-25,53.7,42.9,31.1,42.3,33.1,26.3,95,72,37,30.37,30.15,19,3,20,0.00
2013-10-26,59.6,40.8,25.1,39.3,31.2,23.6,95,73,36,30.36,30.06,20,2,22,0.00
2013-10-27,69.9,50.3,35.7,50.1,42.7,34.1,96,78,44,30.13,30.03,17,2,20,0.00
2013-10-28,70.9,55.2,43.7,57.2,50.2,42.4,96,85,55,30.25,30.10,11,0,11,0.00
2013-10-29,74.6,59.0,48.6,57.0,52.8,47.2,97,82,47,30.33,30.23,15,1,16,0.00
2013-10-30,80.3,62.3,50.5,60.0,54.8,49.1,96,79,45,30.28,30.14,20,2,26,0.00
2013-10-31,69.6,60.8,51.7,63.9,56.2,50.5,96,86,68,30.17,29.88,18,1,20,0.00
2013-11-1,69.5,64.7,59.0,64.6,60.9,57.1,95,87,78,29.88,29.67,30,5,32,0.30
2013-11-2,71.3,56.3,41.9,58.1,47.7,38.0,97,76,36,29.98,29.71,18,2,18,0.01
2013-11-3,62.4,46.5,33.5,42.7,36.2,32.2,97,72,35,30.27,29.97,18,3,20,0.00
2013-11-4,58.6,48.1,31.1,37.1,33.9,29.1,96,62,35,30.52,30.42,16,3,18,0.00
2013-11-5,57.2,45.2,32.1,47.9,38.9,29.5,94,79,62,30.56,30.41,12,2,14,0.00
2013-11-6,73.2,56.5,46.8,54.3,49.6,45.4,95,79,50,30.41,30.11,14,2,14,0.00
2013-11-7,72.7,52.0,41.9,60.2,43.2,32.3,97,75,42,30.14,29.95,22,3,22,0.00
2013-11-8,60.2,44.0,30.5,34.2,27.3,17.3,91,57,20,30.32,30.14,20,3,20,0.00
2013-11-9,59.3,42.8,26.3,36.7,29.8,24.7,95,65,30,30.39,30.20,21,2,21,0.00
2013-11-10,73.8,53.3,33.6,41.4,33.9,28.3,95,55,21,30.24,30.11,20,3,22,0.00
2013-11-11,63.6,45.1,29.0,32.8,28.3,24.6,89,57,23,30.36,30.14,15,2,15,0.00
2013-11-12,64.7,41.8,28.7,40.2,29.6,14.8,92,66,30,30.46,30.06,28,6,28,0.01
2013-11-13,49.5,32.2,18.9,23.2,17.2,12.4,91,59,23,30.54,30.45,17,2,20,0.00
2013-11-14,59.5,36.4,19.3,25.6,20.2,16.8,93,60,20,30.47,30.31,23,2,23,0.00
2013-11-15,58.0,43.3,26.3,46.1,33.4,22.0,95,71,38,30.34,30.19,7,0,8,0.10
2013-11-16,62.5,53.9,47.5,55.6,51.1,46.1,96,91,76,30.28,30.19,9,0,9,0.01
2013-11-17,67.0,58.5,51.7,64.1,56.4,50.3,97,93,76,30.21,29.88,19,1,19,0.19
2013-11-18,75.2,63.8,51.2,65.2,47.5,28.5,97,61,24,30.00,29.82,22,6,28,0.00
2013-11-19,55.9,46.1,37.0,32.4,26.7,22.3,77,49,28,30.27,29.99,21,4,21,0.00
2013-11-20,52.4,42.0,33.9,33.7,30.7,27.5,80,65,45,30.45,30.25,21,4,22,0.00
2013-11-21,55.3,48.6,43.2,44.9,39.2,31.3,77,70,62,30.48,30.37,13,3,14,0.00
2013-11-22,62.5,55.6,48.7,57.8,52.1,43.6,94,88,75,30.39,30.10,19,2,22,0.01
2013-11-23,59.2,53.6,41.2,56.3,42.8,18.8,97,70,37,30.21,30.07,18,3,18,0.01
2013-11-24,42.0,32.2,22.6,24.3,12.3,3.8,72,45,21,30.50,30.20,22,5,22,0.00
2013-11-25,44.3,30.8,17.1,25.8,13.1,5.6,87,52,22,30.55,30.32,16,1,16,0.00
2013-11-26,43.9,36.2,31.2,43.1,33.5,22.8,97,91,60,30.33,29.59,17,2,17,2.89
2013-11-27,44.4,37.6,20.3,43.6,31.0,16.3,97,78,50,30.28,29.52,21,6,22,0.34
2013-11-28,47.1,32.9,17.7,24.5,21.3,15.8,94,66,36,30.45,30.28,16,2,16,0.00
2013-11-29,52.6,34.3,20.4,31.1,23.2,18.9,96,70,29,30.59,30.44,20,2,20,0.00
2013-11-30,47.0,33.7,26.0,25.6,23.5,21.3,89,69,37,30.63,30.36,22,2,22,0.00
2013-12-1,61.1,38.0,23.7,40.1,29.7,22.0,94,76,39,30.36,30.01,16,2,16,0.00
2013-12-2,60.6,41.7,26.7,39.6,33.5,25.5,96,76,39,30.01,29.82,15,1,15,0.00
2013-12-3,59.8,44.7,41.0,52.5,41.3,36.8,95,88,70,29.95,29.85,7,0,16,0.05
2013-12-4,59.7,57.0,52.0,58.6,55.7,50.6,97,95,90,30.07,29.95,12,1,14,0.07
2013-12-5,67.6,63.7,59.3,65.2,62.1,58.4,97,95,87,30.10,30.00,23,5,24,0.08
2013-12-6,75.8,68.4,66.0,64.8,63.9,62.2,95,86,63,30.03,29.95,32,13,34,0.02
2013-12-7,67.9,56.8,44.6,64.0,52.5,37.5,96,86,68,30.40,29.98,25,6,26,0.08
2013-12-8,44.5,37.3,33.3,38.0,34.1,32.0,96,88,76,30.41,30.25,16,4,16,0.27
2013-12-9,43.7,38.3,33.5,42.7,37.3,32.5,97,96,96,30.25,30.05,8,1,10,0.42
2013-12-10,54.0,44.5,26.9,48.1,38.3,24.3,97,82,38,30.31,29.89,24,4,24,0.30
2013-12-11,51.3,33.0,20.1,30.8,24.1,18.7,96,74,34,30.43,30.28,19,2,19,0.00
2013-12-12,49.1,33.6,22.4,25.7,17.2,-0.8,94,60,13,30.39,30.27,24,3,24,0.00
2013-12-13,51.9,33.4,18.6,30.3,22.5,16.7,94,69,32,30.36,30.23,22,2,22,0.00
2013-12-14,43.5,38.2,35.6,38.7,35.1,29.8,96,89,76,30.25,29.79,17,2,17,0.75
2013-12-15,52.5,41.2,27.8,41.5,34.0,25.4,97,78,42,30.10,29.73,22,4,24,0.01
2013-12-16,59.2,40.0,23.4,35.6,29.3,22.2,96,70,36,30.16,30.07,21,3,24,0.00
2013-12-17,62.8,45.7,27.6,37.1,32.0,24.1,95,63,36,30.12,29.90,29,5,29,0.00
2013-12-18,52.3,40.2,27.0,24.1,18.6,10.1,80,44,20,30.27,30.05,24,4,24,0.00
2013-12-19,64.1,42.0,23.3,30.3,23.4,18.5,92,56,18,30.31,30.20,26,3,28,0.00
2013-12-20,60.5,49.0,36.1,49.1,40.9,28.9,91,74,53,30.23,30.14,26,3,28,0.00
2013-12-21,69.4,57.8,45.4,62.6,53.8,44.1,96,87,75,30.14,29.98,25,2,26,0.00
2013-12-22,72.3,66.3,62.1,66.6,63.5,60.2,97,91,80,30.07,29.96,36,9,36,1.56
2013-12-23,63.6,57.2,45.0,62.4,54.3,37.1,97,90,74,30.17,29.97,19,3,20,1.42
2013-12-24,46.8,38.7,27.2,37.8,27.0,17.3,96,65,36,30.41,30.16,24,4,24,0.00
2013-12-25,41.7,31.5,18.7,21.2,13.1,7.1,90,50,25,30.53,30.36,18,3,18,0.00
2013-12-26,54.2,33.6,21.1,27.6,23.2,19.1,93,70,32,30.36,30.23,13,1,13,0.00
2013-12-27,52.9,28.5,21.5,29.0,22.2,19.6,95,81,27,30.46,30.34,9,0,9,0.00
2013-12-28,54.1,36.2,20.6,39.8,28.3,19.1,94,76,39,30.39,30.11,11,1,11,0.05
2013-12-29,59.3,45.0,35.9,51.1,42.0,34.6,96,90,69,30.11,29.77,22,3,22,1.25
2013-12-30,52.8,39.8,29.7,43.6,36.3,28.7,97,88,61,30.10,29.93,8,0,8,0.00
2013-12-31,50.0,34.4,27.6,39.7,30.7,19.2,96,87,36,30.35,30.08,5,0,12,0.00
2014-1-1,50.7,36.0,25.5,31.6,28.0,24.0,95,75,42,30.38,30.12,16,1,16,0.00
2014-1-2,45.5,38.9,30.6,44.2,35.5,17.7,96,88,56,30.13,29.63,32,3,32,0.29